Regional Weather Roundup
Issued by NWS State College, PA

Home | Current Version | Previous Version | Text Only | Print | Product List | Glossary On
Versions: 1 2 3 4 5 6 7 8 9 10 11 12 13 14 15 16 17 18 19 20 21 22 23 24 25 26 27 28 29 30 31 32 33 34 35 36 37 38 39 40 41 42 43 44 45 46 47 48 49 50
000
ASUS41 KCTP 231703
RWRCTP

REGIONAL WEATHER ROUNDUP
NATIONAL WEATHER SERVICE STATE COLLEGE PA
100 PM EDT TUE SEP 23 2014

Note: "fair" indicates few or no clouds below 12,000 feet with no
significant weather and/or obstructions to visibility.

* = STATION THAT DOES NOT REPORT PRECIPITATION /E.G. RAIN...SNOW...ETC/
    THUNDER OR FOG.

PAZ002>004-007>009-013>016-020>023-029>032-231800-
WESTERN PENNSYLVANIA

CITY           SKY/WX    TMP DP  RH WIND       PRES   REMARKS
ERIE           SUNNY     64  49  57 W9        30.36R
MEADVILLE      SUNNY     61  47  59 W5        30.37S
FRANKLIN*      SUNNY     61  45  55 N6        30.38S
NEW CASTLE       N/A     63  48  57 CALM      30.39S
BEAVER COUNTY  SUNNY     61  45  55 CALM      30.39S
BUTLER*        SUNNY     61  45  55 CALM      30.40S
PITTSBURGH INT MOSUNNY   61  43  51 CALM      30.38S
PITTSBURGH     SUNNY     63  43  48 VRB5      30.37S
INDIANA*       SUNNY     59  46  63 CALM      30.41S
LATROBE        SUNNY     63  46  55 CALM      30.38S
WASHINGTON CO* SUNNY     63  45  51 SE5       30.40R
$$

PAZ004>006-010>012-017>019-024>028-033>037-041-042-045-046-049>053-231800-
CENTRAL PENNSYLVANIA

CITY           SKY/WX    TMP DP  RH WIND       PRES   REMARKS
BRADFORD       SUNNY     61  46  57 N5        30.36S
DUBOIS         SUNNY     61  46  57 N3        30.36S
CLEARFIELD     SUNNY     61  47  59 VRB3      30.37S
JOHNSTOWN      SUNNY     60  42  51 VRB3      30.37R
ALTOONA        SUNNY     62  46  55 VRB7      30.38S
STATE COLLEGE  MOSUNNY   61  45  55 CALM      30.37S
WILLIAMSPORT   SUNNY     64  46  52 S6        30.34S
SELINSGROVE    SUNNY     65  46  50 CALM      30.36S
FT INDIANTOWN  SUNNY     66  46  47 VRB6      30.35F
CAPITAL CITY   SUNNY     65  44  46 N6        30.36F
HARRISBURG     SUNNY     67  46  47 W7        30.35F
YORK           SUNNY     68  42  38 CALM      30.36S
$$

PAZ038>040-043-044-047-048-054-055-060>062-067>071-231800-
EASTERN PENNSYLVANIA

CITY           SKY/WX    TMP DP  RH WIND       PRES   REMARKS
SCRANTON       SUNNY     63  43  48 CALM      30.34S
MOUNT POCONO   SUNNY     62  41  46 CALM      30.34R
ALLENTOWN      SUNNY     65  42  43 CALM      30.34S
QUAKERTOWN*    SUNNY     66  41  39 NE6       30.35S
READING        SUNNY     66  43  43 VRB3      30.34S
LANCASTER      SUNNY     65  41  41 VRB3      30.35F
COATESVILLE    SUNNY     64  45  48 CALM      30.36S
POTTSTOWN      SUNNY     66  43  43 VRB3      30.36R
BLUE BELL      SUNNY     66  43  42 CALM      30.34S
DOYLESTOWN     SUNNY     65  43  44 VRB3      30.34R
WILLOW GROVE   NOT AVBL
NORTH PHILA    SUNNY     66  39  37 VRB6      30.37R
PHILADELPHIA   MOSUNNY   67  43  41 SE5       30.36R
$$


USA.gov is the U.S. government's official web portal to all federal, state and local government web resources and services.